Temperature
20 21 22 22 22 21 21 20 20 20 19 20 19 19 20 20 20 20 20 21 21 21 21 21 21 21 21 21 21 20 20 20 20 19 19 19 19 18 18 18 18 18 17 17
21 21 21 21 22 21 21 21 20 20 20 19 20 20 20 20 20 20 20 20 21 21 21 21 21 21 21 20 20 20 20 20 19 19 19 19 18 18 18 18 18 17 17 17
19 20 21 21 21 21 21 21 20 20 20 19 19 19 19 20 20 20 20 20 20 21 21 21 21 21 20 20 20 20 19 19 19 19 19 18 18 18 18 18 17 17 17 17
17 20 21 20 20 21 20 20 19 19 19 19 19 20 20 20 20 20 20 20 21 21 21 20 20 20 20 20 19 19 19 19 19 18 18 18 18 18 17 17 17 17 17 16
15 17 19 20 20 20 20 19 19 18 18 19 19 19 20 20 20 20 20 20 20 20 20 20 20 19 19 19 19 19 18 18 18 18 18 17 17 17 17 17 16 16 16 16
15 18 19 19 20 20 20 19 19 18 18 18 18 17 18 20 20 20 20 20 20 20 20 19 19 19 19 18 18 18 18 18 17 17 17 17 17 17 16 16 16 16 16 15
15 17 17 18 19 20 20 19 19 19 18 18 18 18 20 20 20 20 20 19 19 19 19 19 19 18 18 18 18 17 17 17 17 17 17 16 16 16 16 16 15 15 15 15
14 17 18 18 18 18 18 19 19 19 19 19 19 19 20 20 20 19 19 19 19 18 18 18 18 18 17 17 17 17 17 16 16 16 16 16 16 15 15 15 15 15 15 15
14 15 16 17 17 19 19 19 19 19 19 19 19 19 19 19 19 19 19 18 18 18 18 17 17 17 17 17 17 16 16 16 16 16 15 15 15 15 15 15 14 14 14 14
13 15 16 17 18 18 19 19 19 19 19 19 19 19 18 18 18 18 18 18 17 17 17 17 17 17 17 16 16 16 16 16 15 15 15 15 15 14 14 14 14 14 14 14
13 14 15 17 17 18 18 19 19 19 19 19 18 18 18 18 18 18 17 17 17 17 17 17 16 16 16 16 16 16 15 15 15 15 15 14 14 14 14 14 13 13 13 13
14 15 14 16 17 17 18 18 18 18 18 18 18 17 17 17 17 17 17 17 17 16 16 16 16 16 16 15 15 15 15 14 14 14 14 14 14 14 13 13 13 13 13 13
16 16 16 16 17 17 17 17 17 17 17 17 17 17 17 17 16 16 16 16 16 16 16 16 15 15 15 15 15 14 14 14 14 14 14 14 13 13 13 13 13 12 12 12
16 16 15 16 16 17 17 17 17 17 17 16 16 16 16 16 16 16 15 15 15 15 15 15 15 15 14 14 14 14 14 14 13 13 13 13 13 13 12 12 12 12 12 12
16 16 15 15 16 16 16 16 16 16 16 16 16 15 15 15 15 15 14 14 14 14 14 14 14 14 14 14 14 13 13 13 13 13 13 13 12 12 12 12 12 11 11 11
15 15 15 15 15 15 15 15 15 15 15 15 15 15 15 15 14 14 14 14 14 14 13 13 13 13 13 13 13 13 13 13 13 12 12 12 12 12 11 11 11 11 11 11
14 14 14 14 15 15 15 15 15 15 14 14 14 14 14 14 14 13 13 13 13 13 13 13 13 13 13 12 12 12 12 12 12 12 12 12 11 11 11 11 11 10 10 10
14 14 14 14 14 14 14 14 14 14 14 14 14 13 13 13 13 13 13 13 13 12 12 12 12 12 12 12 12 12 12 12 12 12 11 11 11 11 10 10 10 10 10 10
14 14 14 14 14 14 14 14 14 14 14 13 13 13 13 13 12 12 12 12 12 12 12 12 12 12 12 12 12 11 11 11 11 11 11 11 10 10 10 10 9 9 9 9
14 14 14 14 14 14 13 13 13 13 13 13 13 13 13 12 12 12 12 12 12 11 12 12 12 12 11 11 11 11 11 11 11 10 10 10 10 10 9 9 9 9 9 9
13 13 13 13 13 13 13 13 13 13 13 13 13 12 12 12 12 12 11 11 11 11 11 11 11 11 11 11 11 11 11 10 10 10 10 9 9 9 9 9 9 8 8 8
12 13 13 13 13 13 13 13 13 12 12 12 12 12 12 12 11 11 11 11 11 11 11 11 11 11 11 11 10 10 10 10 10 10 9 9 9 9 8 8 8 8 8 8
12 12 12 12 12 12 12 12 12 12 12 12 12 12 12 12 11 11 11 11 11 11 10 10 10 10 10 10 10 10 10 10 9 9 9 9 8 8 8 8 8 8 8 8
12 12 12 12 12 12 12 12 12 12 12 12 12 11 11 11 11 11 11 11 10 10 10 10 10 10 10 10 9 9 9 9 9 9 9 8 8 8 8 8 8 8 7 7
12 12 12 11 11 11 12 12 11 11 11 11 11 11 11 11 11 11 10 10 10 10 10 10 10 10 9 9 9 9 9 9 9 8 8 8 8 8 8 8 8 7 7 7
11 11 11 11 11 11 11 11 11 11 11 11 11 11 10 10 10 10 10 10 10 10 10 10 9 9 9 9 9 9 9 8 8 8 8 8 8 8 8 7 7 7 7 7
11 11 11 11 11 11 11 11 11 11 11 11 10 10 10 10 10 10 10 10 10 9 9 9 9 9 9 9 8 8 8 8 8 8 8 8 7 7 7 7 7 7 7 6
Wind_Speed
2 2 2 3 3 4 5 7 8 7 7 8 6 4 3 2 1 2 2 2 1 1 1 1 1 1 1 2 2 3 3 3 4 4 3 3 3 3 3 3 4 3 4 4
1 2 1 2 3 4 4 4 5 3 6 6 3 1 0 0 1 1 0 1 2 1 1 1 2 2 2 2 2 3 3 3 2 2 2 3 3 3 3 3 3 3 4 4
3 4 1 4 5 5 3 3 5 7 7 3 1 1 2 1 1 2 2 2 2 3 3 3 3 2 2 2 2 2 2 2 2 2 2 2 3 3 3 3 3 3 3 3
1 1 4 7 3 3 3 3 3 4 4 4 5 3 2 2 3 2 2 2 3 2 2 2 2 1 1 1 2 2 1 1 1 2 2 2 2 2 3 2 2 3 3 3
4 3 5 6 2 3 3 3 1 2 3 2 2 3 2 1 2 3 3 3 2 2 1 1 1 1 2 1 1 1 1 2 2 2 2 1 2 3 2 2 2 2 2 3
4 4 6 7 3 1 4 2 2 2 3 3 4 2 4 3 2 2 1 1 1 1 2 1 0 2 2 1 1 2 2 3 2 2 2 2 2 2 2 1 2 2 3 3
4 4 7 6 4 2 4 6 3 2 2 3 4 5 4 2 2 1 0 1 1 2 1 0 0 2 2 0 1 3 2 1 1 1 2 2 2 2 2 2 2 2 3 3
4 4 7 3 2 4 6 2 2 2 2 3 4 2 2 2 2 1 1 1 2 1 1 1 1 2 1 1 2 2 1 0 1 1 1 1 1 1 1 2 2 2 2 3
7 7 4 3 3 2 3 2 2 2 3 3 3 2 2 2 1 1 1 1 1 0 1 2 1 1 0 2 2 1 1 0 1 1 1 1 1 2 2 1 2 2 2 3
3 5 5 4 3 2 1 2 3 3 3 3 3 3 2 1 1 1 1 1 0 1 2 2 2 1 1 1 1 1 1 1 1 1 1 1 1 2 2 2 2 2 3 3
3 6 6 5 4 4 4 3 2 1 2 3 3 2 2 2 1 1 1 1 1 1 1 2 2 1 1 1 0 0 1 1 1 1 1 1 2 2 3 3 3 3 3 3
6 6 4 6 6 3 4 4 3 1 1 1 2 3 2 2 2 2 1 1 1 1 1 2 2 2 2 2 1 1 1 1 1 2 1 1 1 2 2 1 2 2 2 2
6 5 6 7 6 5 5 5 4 2 2 2 2 3 3 2 2 1 1 1 1 1 1 1 1 2 2 2 1 1 1 2 2 2 2 1 1 1 2 3 3 3 2 1
5 3 4 5 6 6 4 4 2 2 2 2 2 2 2 2 1 1 1 1 1 0 0 0 1 3 3 2 1 1 1 2 2 2 2 2 2 2 1 1 1 2 3 3
4 4 5 5 5 4 2 2 2 2 2 1 2 2 2 2 2 2 1 1 0 1 1 1 1 3 3 1 1 1 1 1 1 1 1 1 1 1 0 1 1 1 2 3
5 5 4 3 4 4 2 0 2 3 3 3 2 2 2 2 2 1 1 1 1 1 2 2 3 3 2 1 1 1 1 1 1 1 1 0 0 0 1 1 1 1 1 2
3 4 5 5 5 5 3 3 3 3 2 2 2 1 1 1 1 0 1 1 2 2 3 3 4 4 2 2 2 2 1 1 0 0 0 0 0 1 1 1 1 1 2 1
6 7 6 6 6 4 4 3 2 2 2 2 2 1 1 1 1 1 2 1 1 2 3 3 3 3 2 2 2 1 1 1 1 1 1 0 0 0 0 1 1 1 2 2
3 3 4 4 4 4 3 3 2 2 2 3 2 2 1 2 2 2 1 1 1 3 4 4 3 2 2 2 1 1 1 1 1 0 0 0 0 0 0 0 0 1 1 2
3 3 2 3 3 2 2 2 1 1 2 2 2 2 2 2 2 2 1 2 3 3 4 3 2 1 1 1 0 1 1 1 1 0 0 0 0 0 1 1 1 1 1 1
4 3 3 3 3 1 1 1 1 2 2 2 3 3 3 2 1 1 1 2 4 3 2 2 1 1 1 0 1 1 1 1 1 1 1 1 1 1 1 1 1 1 1 1
4 4 4 3 2 2 2 1 1 1 1 1 2 2 2 1 1 1 2 3 3 2 1 1 1 0 1 1 1 1 1 1 1 1 1 1 0 0 0 0 1 1 1 2
4 3 3 3 2 2 2 1 0 1 1 2 2 2 3 2 2 2 2 3 2 1 0 1 1 1 2 2 1 2 2 2 1 1 1 0 0 1 1 0 1 1 1 1
3 3 3 3 2 1 1 2 1 0 1 1 1 2 2 2 1 2 2 2 1 1 0 0 1 2 2 2 2 2 2 1 1 1 0 0 0 0 0 0 0 1 1 1
3 2 3 2 2 2 2 2 1 0 0 1 1 1 1 2 2 1 0 0 1 1 1 1 2 2 2 2 2 2 1 1 1 1 0 1 1 1 1 1 1 1 1 1
2 2 2 2 2 2 1 1 1 1 1 0 1 1 1 0 1 0 0 1 1 2 2 1 1 2 2 2 2 2 1 2 2 1 1 1 1 1 1 1 1 1 1 1
2 2 2 2 2 0 0 1 1 1 1 1 1 1 1 1 1 1 1 1 2 2 2 2 1 2 2 2 2 2 2 2 2 2 1 2 1 1 1 0 1 1 1 1
Wind_Direction
231 247 189 198 211 184 182 186 191 222 222 251 252 245 251 231 170 112 86 83 120 164 221 193 124 160 189 191 194 192 184 200 218 220 212 214 218 229 237 235 234 226 225 235
326 321 232 251 249 208 207 198 204 217 250 255 240 186 303 33 154 172 246 229 221 220 231 228 220 214 198 198 197 173 179 208 221 218 217 221 226 227 234 241 242 233 231 235
243 286 14 271 243 206 202 214 189 212 234 237 184 193 208 209 177 204 235 250 241 233 230 228 222 208 209 204 168 159 179 205 215 214 221 228 230 226 235 240 238 239 246 245
172 94 224 247 257 185 182 245 221 225 235 214 199 202 188 181 175 211 241 251 251 252 254 243 200 165 151 145 151 170 200 237 241 231 246 249 236 238 241 244 236 241 246 249
139 183 266 289 259 165 178 267 253 202 223 196 136 81 349 272 203 219 232 240 244 244 245 192 162 154 127 126 152 174 227 254 255 231 229 235 245 252 258 239 242 243 248 247
138 167 224 248 271 245 126 257 264 176 188 173 105 116 259 275 285 282 307 337 3 42 73 82 74 143 131 144 179 238 249 252 249 223 213 224 238 252 271 252 250 253 260 258
160 206 254 259 282 109 160 238 236 185 184 171 187 211 238 245 233 210 185 17 41 51 61 351 33 108 118 95 286 277 272 262 260 238 224 221 229 250 263 275 270 267 272 279
155 190 250 292 109 167 212 221 170 186 194 199 218 232 235 200 191 171 88 47 44 47 10 357 67 96 76 304 291 296 293 297 286 272 253 252 218 261 257 246 254 273 285 297
194 215 252 287 234 252 183 177 206 210 227 201 214 232 231 224 205 197 152 108 62 64 17 10 30 109 164 292 314 342 26 322 286 290 293 240 221 233 248 242 248 264 270 279
261 275 287 294 302 312 246 225 245 237 227 190 209 229 228 219 214 210 194 147 116 72 28 342 331 308 243 274 317 10 321 291 279 273 309 311 269 237 229 233 241 244 254 268
267 284 310 310 300 295 299 293 290 283 221 196 185 213 212 214 225 225 236 235 201 174 202 281 300 298 284 260 193 326 285 278 284 280 274 295 290 261 238 232 231 226 240 246
228 234 224 264 277 282 288 282 267 264 314 266 184 196 202 216 231 218 220 230 240 248 242 276 303 295 285 267 211 193 276 294 287 283 278 274 293 323 326 294 325 259 239 227
232 241 235 265 279 277 274 273 268 243 216 222 213 177 183 207 222 220 212 200 204 234 256 290 329 320 307 301 263 208 232 262 270 269 269 274 269 275 313 349 16 14 5 359
246 247 272 275 277 280 267 261 245 226 214 187 186 179 170 184 207 236 265 265 236 147 54 343 348 324 313 303 269 248 256 258 253 262 265 266 263 259 260 278 319 344 349 349
276 254 246 268 287 298 286 219 183 198 175 184 193 198 187 190 205 227 241 234 46 12 341 334 333 316 311 305 280 260 257 271 272 273 270 263 261 267 304 313 300 318 344 349
290 297 286 282 282 294 310 234 184 218 204 201 215 219 208 192 197 212 221 190 166 248 282 298 300 299 303 290 278 286 280 265 255 237 251 250 237 289 300 293 295 306 319 331
261 277 277 278 277 278 280 253 218 220 217 214 216 204 170 158 150 126 298 269 228 243 254 260 276 290 289 262 242 247 251 245 216 145 165 261 278 248 250 263 272 283 295 307
245 249 252 248 251 265 275 258 226 201 193 191 168 151 171 184 199 233 264 293 322 312 298 281 282 288 286 275 259 242 217 199 197 196 199 201 239 239 228 265 269 297 320 337
283 277 281 272 255 246 250 243 227 200 179 168 166 182 210 216 213 232 255 281 289 296 297 296 290 286 287 283 274 196 173 169 157 140 174 108 59 11 176 195 330 337 345 354
329 329 328 321 310 266 243 242 223 210 196 174 167 182 227 235 220 218 227 266 270 266 280 291 295 292 286 286 21 128 137 152 156 138 46 65 99 55 53 43 20 2 349 335
331 331 337 330 323 316 263 224 202 216 218 183 183 203 226 242 233 213 209 276 294 293 292 288 287 294 315 42 67 93 100 109 123 135 118 105 84 56 45 43 23 345 326 328
322 318 315 315 324 320 311 278 203 215 229 215 203 195 199 216 236 276 266 251 271 285 293 298 281 233 120 92 92 101 98 93 89 92 94 101 117 146 66 31 341 328 326 332
306 305 308 310 306 302 323 337 5 207 231 223 211 208 210 212 201 197 255 265 257 254 247 275 261 114 112 93 96 97 89 78 71 76 92 124 180 172 149 213 288 316 339 340
311 310 301 302 319 348 324 299 299 263 267 258 230 214 195 197 242 248 236 243 234 196 182 295 97 90 77 74 88 88 83 79 75 69 76 46 332 143 154 202 334 1 359 354
316 325 320 316 301 278 269 282 321 13 357 347 331 300 236 202 208 251 268 229 182 150 124 87 95 97 87 82 85 84 76 76 91 93 43 76 88 93 77 56 40 22 360 345
312 318 314 306 276 262 278 290 264 256 211 212 310 321 333 30 129 156 114 91 93 110 102 85 84 83 79 84 82 76 66 63 59 43 56 65 62 71 75 56 26 1 341 333
319 328 333 339 339 331 256 247 239 244 214 193 228 307 353 35 78 96 107 111 102 94 87 82 83 80 73 75 73 65 63 59 50 41 47 43 39 41 40 19 351 343 335 329
Height
1502 1499 1499 1500 1500 1502 1505 1509 1515 1510 1508 1500 1494 1493 1492 1492 1492 1492 1493 1493 1494 1494 1495 1495 1496 1497 1498 1498 1500 1501 1502 1502 1503 1504 1504 1504 1505 1505 1505 1505 1505 1504 1504 1503
1503 1499 1499 1501 1498 1498 1499 1501 1503 1503 1503 1492 1491 1492 1492 1492 1492 1492 1492 1493 1493 1494 1494 1494 1494 1495 1495 1496 1497 1498 1499 1499 1500 1500 1501 1501 1501 1501 1501 1501 1501 1501 1500 1500
1513 1504 1501 1507 1498 1496 1496 1495 1497 1501 1496 1491 1492 1491 1491 1491 1491 1491 1492 1492 1492 1492 1492 1493 1493 1493 1494 1494 1495 1496 1496 1496 1497 1498 1498 1498 1498 1498 1497 1497 1497 1497 1496 1496
1516 1510 1517 1503 1489 1489 1492 1492 1491 1491 1490 1489 1489 1489 1490 1490 1491 1491 1491 1491 1491 1491 1491 1492 1492 1492 1493 1494 1494 1494 1494 1494 1494 1495 1495 1495 1495 1494 1494 1493 1493 1493 1492 1492
1520 1519 1511 1497 1489 1489 1492 1494 1490 1490 1489 1489 1489 1489 1490 1490 1489 1489 1490 1490 1490 1490 1491 1491 1491 1491 1491 1492 1492 1492 1492 1492 1492 1492 1492 1492 1491 1491 1491 1490 1489 1489 1488 1488
1518 1516 1516 1498 1486 1485 1489 1496 1488 1487 1488 1488 1488 1493 1491 1489 1489 1488 1489 1489 1489 1489 1489 1489 1489 1490 1489 1489 1490 1490 1490 1490 1490 1490 1489 1489 1488 1488 1488 1487 1486 1485 1485 1484
1514 1513 1505 1489 1484 1485 1499 1495 1486 1486 1486 1487 1487 1488 1487 1487 1487 1487 1488 1488 1489 1488 1488 1488 1488 1488 1488 1488 1488 1488 1488 1488 1488 1487 1486 1486 1485 1485 1484 1484 1483 1482 1481 1481
1513 1512 1505 1485 1485 1489 1489 1484 1484 1485 1485 1485 1485 1486 1486 1486 1486 1486 1486 1486 1487 1487 1486 1486 1486 1486 1486 1486 1487 1486 1486 1485 1485 1484 1484 1483 1482 1481 1481 1480 1479 1478 1478 1477
1501 1499 1488 1485 1484 1484 1483 1483 1484 1484 1484 1484 1484 1484 1484 1484 1484 1484 1484 1484 1485 1485 1485 1484 1485 1485 1484 1484 1484 1484 1483 1482 1482 1482 1481 1480 1479 1478 1477 1477 1476 1475 1474 1473
1495 1488 1486 1484 1483 1483 1483 1483 1482 1482 1483 1482 1482 1482 1483 1483 1483 1482 1482 1482 1483 1483 1482 1482 1483 1483 1483 1482 1482 1481 1480 1479 1479 1479 1478 1477 1476 1475 1474 1473 1472 1472 1471 1470
1493 1488 1484 1482 1482 1482 1481 1481 1480 1480 1481 1481 1481 1481 1481 1481 1481 1481 1481 1481 1481 1480 1480 1480 1480 1480 1480 1480 1480 1479 1478 1477 1477 1476 1475 1474 1474 1473 1471 1470 1470 1469 1468 1467
1490 1485 1485 1482 1481 1480 1479 1478 1478 1478 1478 1478 1478 1478 1479 1479 1479 1479 1479 1478 1478 1478 1477 1478 1478 1478 1478 1478 1477 1476 1475 1474 1474 1473 1472 1471 1471 1470 1469 1468 1467 1466 1465 1465
1482 1482 1481 1480 1478 1478 1477 1476 1476 1475 1475 1475 1476 1476 1476 1476 1476 1476 1476 1476 1476 1475 1475 1475 1475 1475 1475 1475 1474 1473 1473 1472 1471 1470 1469 1468 1468 1467 1466 1465 1465 1463 1462 1462
1479 1479 1478 1476 1475 1474 1473 1473 1472 1472 1472 1473 1474 1474 1473 1474 1474 1474 1474 1474 1474 1473 1473 1473 1473 1472 1472 1472 1472 1471 1470 1469 1468 1467 1467 1466 1465 1464 1463 1462 1461 1460 1460 1460
1476 1476 1475 1473 1472 1471 1469 1469 1469 1469 1469 1471 1471 1472 1471 1471 1471 1471 1471 1471 1471 1471 1470 1470 1470 1469 1469 1469 1469 1468 1467 1466 1465 1464 1464 1463 1462 1461 1461 1460 1459 1458 1457 1456
1473 1472 1471 1470 1469 1468 1467 1466 1466 1466 1467 1468 1469 1469 1469 1469 1469 1469 1469 1469 1468 1468 1468 1467 1467 1466 1466 1466 1466 1465 1464 1463 1462 1461 1461 1460 1459 1458 1458 1457 1456 1456 1454 1453
1471 1469 1468 1467 1467 1466 1465 1465 1464 1464 1465 1465 1466 1467 1467 1467 1467 1466 1467 1467 1467 1466 1465 1465 1464 1463 1463 1463 1462 1461 1460 1459 1459 1458 1457 1457 1456 1456 1455 1454 1453 1452 1451 1450
1468 1466 1465 1465 1464 1463 1463 1463 1462 1462 1462 1463 1464 1464 1465 1465 1464 1464 1464 1464 1464 1463 1463 1462 1461 1460 1460 1460 1459 1458 1457 1456 1455 1455 1454 1453 1453 1452 1452 1452 1451 1450 1449 1448
1464 1463 1462 1461 1461 1461 1460 1460 1460 1460 1461 1462 1462 1462 1462 1462 1462 1462 1462 1462 1461 1460 1459 1459 1459 1458 1457 1456 1456 1455 1454 1453 1452 1452 1451 1451 1450 1449 1449 1449 1448 1447 1446 1445
1462 1461 1460 1459 1458 1458 1458 1458 1458 1458 1459 1459 1460 1460 1460 1460 1460 1460 1460 1459 1459 1458 1457 1456 1456 1455 1454 1454 1453 1452 1451 1450 1449 1449 1448 1448 1447 1447 1446 1446 1445 1444 1444 1443
1461 1459 1458 1457 1457 1456 1456 1456 1456 1456 1457 1457 1457 1457 1457 1457 1457 1457 1457 1456 1456 1455 1454 1454 1453 1452 1452 1451 1451 1450 1449 1448 1447 1446 1445 1445 1444 1444 1443 1443 1443 1442 1442 1441
1459 1458 1457 1456 1455 1455 1455 1455 1454 1455 1455 1455 1455 1455 1455 1455 1455 1455 1455 1455 1454 1453 1452 1451 1451 1450 1450 1449 1449 1448 1447 1446 1445 1444 1444 1443 1443 1442 1441 1441 1441 1440 1439 1439
1458 1457 1455 1454 1453 1453 1453 1453 1453 1453 1453 1453 1453 1453 1453 1453 1453 1452 1452 1452 1451 1451 1450 1450 1449 1449 1448 1448 1447 1446 1445 1444 1444 1443 1442 1441 1441 1440 1439 1439 1439 1438 1437 1437
1456 1455 1454 1453 1452 1451 1451 1451 1451 1452 1452 1452 1452 1452 1451 1451 1451 1451 1450 1450 1449 1449 1449 1448 1448 1447 1447 1446 1446 1445 1444 1443 1442 1441 1440 1439 1439 1438 1438 1437 1437 1437 1436 1435
1455 1454 1452 1451 1450 1449 1450 1450 1450 1450 1451 1451 1451 1451 1451 1450 1450 1449 1449 1448 1448 1448 1448 1447 1447 1447 1446 1445 1445 1444 1443 1442 1441 1440 1439 1438 1437 1437 1437 1437 1436 1436 1435 1435
1454 1452 1451 1449 1448 1448 1449 1449 1449 1449 1449 1449 1450 1450 1450 1449 1449 1448 1447 1447 1447 1447 1447 1447 1447 1446 1445 1445 1444 1443 1442 1442 1441 1439 1438 1438 1437 1437 1437 1437 1436 1435 1435 1434
1452 1451 1450 1449 1448 1448 1449 1449 1449 1449 1449 1449 1449 1449 1449 1448 1448 1448 1447 1447 1447 1447 1447 1447 1447 1446 1445 1445 1444 1443 1443 1442 1441 1440 1439 1438 1438 1437 1437 1436 1436 1435 1434 1433